Weather History for Clinton-Sherman, OK

Change the Weather History Date:

Tuesday, May 14, 2013

  Actual Average Record
Temperature  
Mean Temperature 74 °F -  
Max Temperature 90 °F 79 °F 90 °F (2013)
Min Temperature 60 °F 55 °F 42 °F (2011)
Cooling Degree Days 10    
Growing Degree Days 24 (Base 50)    
Moisture  
Dew Point 46 °F    
Average Humidity 36    
Maximum Humidity 53    
Minimum Humidity 21    
Precipitation  
Precipitation 0.00 in - - ()
Sea Level Pressure  
Sea Level Pressure 29.95 in    
Wind  
Wind Speed 16 mph (SSW)    
Max Wind Speed 23 mph    
Max Gust Speed 34 mph    
Visibility 10 miles    
Events      
Averages and records for this station are not official NWS values.
T = Trace of Precipitation, MM = Missing Value Source: NWS Daily Summary

Daily Weather History Graph

Daily Weather History Graph

Search for Another Location

Airport:

Trip Planner

Search our weather history database for the weather conditions in past years. The results will help you decide how hot, cold, wet, or windy it might be!

Date:

Astronomy

May. 14, 2013 Rise Set
Actual Time 6:33 AM CDT 8:33 PM CDT
Civil Twilight 6:04 AM CDT 9:01 PM CDT
Nautical Twilight 5:30 AM CDT 9:36 PM CDT
Astronomical Twilight 4:53 AM CDT 10:13 PM CDT
Moon 10:13 AM CDT (5/14) No Moon Set
Length of Visible Light 14h 57m
Length of Day
14h 00m
Waxing Crescent, 19% of the Moon is Illuminated
May 14
Waxing Crescent
May 17
First Quarter
May 24
Full
May 31
Last Quarter
Jun 8
New

Hourly Weather History & Observations

Time (CDT) Temp. Dew Point Humidity Pressure Visibility Wind Dir Wind Speed Gust Speed Precip Events Conditions
12:53 AM 69.1 °F 39.0 °F 33% 30.01 in 10.0 mi SSW 17.3 mph - N/A   Clear
1:53 AM 69.1 °F 37.9 °F 32% 30.00 in 10.0 mi SSW 16.1 mph - N/A   Clear
2:53 AM 66.9 °F 37.9 °F 34% 30.00 in 10.0 mi SSW 16.1 mph - N/A   Clear
3:53 AM 66.0 °F 39.0 °F 37% 29.99 in 10.0 mi SSW 15.0 mph - N/A   Clear
4:53 AM 64.0 °F 41.0 °F 43% 29.99 in 10.0 mi SSW 13.8 mph - N/A   Clear
5:53 AM 63.0 °F 42.1 °F 46% 30.00 in 10.0 mi SW 11.5 mph - N/A   Clear
6:53 AM 60.1 °F 42.1 °F 51% 30.01 in 10.0 mi SSW 11.5 mph - N/A   Clear
7:53 AM 64.0 °F 44.1 °F 48% 30.03 in 10.0 mi SSW 12.7 mph - N/A   Clear
8:53 AM 70.0 °F 46.0 °F 42% 30.04 in 10.0 mi SW 17.3 mph - N/A   Clear
9:53 AM 75.9 °F 48.0 °F 37% 30.03 in 10.0 mi WSW 15.0 mph 20.7 mph N/A   Clear
10:53 AM 81.0 °F 48.9 °F 33% 30.02 in 9.0 mi SW 16.1 mph 23.0 mph N/A   Clear
11:53 AM 84.9 °F 46.0 °F 26% 30.00 in 10.0 mi South 21.9 mph 27.6 mph N/A   Clear
12:53 PM 86.0 °F 48.9 °F 28% 29.98 in 10.0 mi SSW 23.0 mph 31.1 mph N/A   Clear
1:53 PM 87.1 °F 48.0 °F 26% 29.95 in 10.0 mi SSW 23.0 mph 34.5 mph N/A   Clear
2:53 PM 89.1 °F 45.0 °F 22% 29.93 in 10.0 mi SSW 19.6 mph 28.8 mph N/A   Clear
3:53 PM 89.1 °F 44.1 °F 21% 29.91 in 10.0 mi South 17.3 mph 34.5 mph N/A   Clear
4:53 PM 89.1 °F 45.0 °F 22% 29.88 in 10.0 mi South 21.9 mph 27.6 mph N/A   Clear
5:53 PM 87.1 °F 46.9 °F 25% 29.86 in 10.0 mi South 18.4 mph 25.3 mph N/A   Clear
6:53 PM 84.9 °F 48.0 °F 28% 29.85 in 10.0 mi South 19.6 mph 25.3 mph N/A   Clear
7:53 PM 82.0 °F 51.1 °F 34% 29.84 in 10.0 mi South 13.8 mph 20.7 mph N/A   Clear
8:53 PM 77.0 °F 53.1 °F 43% 29.84 in 10.0 mi SSE 10.4 mph - N/A   Clear
9:53 PM 73.9 °F 54.0 °F 50% 29.86 in 10.0 mi SSE 12.7 mph - N/A   Clear
10:53 PM 72.0 °F 54.0 °F 53% 29.87 in 10.0 mi SSE 13.8 mph - N/A   Clear
11:53 PM 73.9 °F 54.0 °F 50% 29.86 in 10.0 mi South 16.1 mph - N/A   Clear